Richlands, VA

11:54 AM EDT on July 20, 2017 (GMT -0400)
Tazewell County

Weather History for KJFZ - December, 2013

Change the Weather History Date:

Sunday, December 8, 2013

  Actual Average (KBLF) Record (KBLF)
Temperature  
Mean Temperature 40 °F -  
Max Temperature 54 °F 46 °F 73 °F (1978)
Min Temperature 31 °F 31 °F 9 °F (2006)
Degree Days  
Heating Degree Days 25    
Moisture  
Dew Point 38 °F    
Average Humidity 91    
Maximum Humidity 94    
Minimum Humidity 87    
Precipitation  
Precipitation 0.57 in - - ()
Sea Level Pressure  
Sea Level Pressure 30.18 in    
Wind  
Wind Speed 7 mph (SE)    
Max Wind Speed 18 mph    
Max Gust Speed 24 mph    
Visibility 8 miles    
Events Rain    
Averages and records for this station are not official NWS values.
T = Trace of Precipitation, MM = Missing Value Source: NWS Daily Summary

Daily Weather History Graph

Daily Weather History Graph

Search for Another Location

Airport or City:

Trip Planner

Search our weather history database for the weather conditions in past years. The results will help you decide how hot, cold, wet, or windy it might be!

Date:

Astronomy

Dec. 08, 2013 Rise Set
Actual Time 7:28 AM EST 5:10 PM EST
Civil Twilight 6:59 AM EST 5:38 PM EST
Nautical Twilight 6:27 AM EST 6:11 PM EST
Astronomical Twilight 5:55 AM EST 6:42 PM EST
Moon 11:54 AM EST (12/8) 11:50 PM EST (12/8)
Length of Visible Light 10h 39m
Length of Day
9h 41m
Waxing Crescent, 40% of the Moon is Illuminated
Dec 8
Waxing Crescent
Dec 9
First Quarter
Dec 17
Full
Dec 25
Last Quarter
Jan 1
New

Hourly Weather History & Observations

Time (EST) Temp. Windchill Dew Point Humidity Pressure Visibility Wind Dir Wind Speed Gust Speed Precip Events Conditions
12:15 AM 31.8 °F 25.4 °F 30.0 °F 93% 30.33 in 5.0 mi NE 6.9 mph - N/A   Overcast
12:35 AM 31.8 °F 26.2 °F 30.0 °F 93% 30.31 in 5.0 mi ENE 5.8 mph - N/A   Overcast
12:55 AM 32.0 °F 24.8 °F 30.2 °F 93% 30.32 in 5.0 mi North 8.1 mph - N/A   Overcast
1:15 AM 32.0 °F 25.6 °F 30.2 °F 93% 30.31 in 7.0 mi ENE 6.9 mph - N/A   Overcast
1:35 AM 32.2 °F 25.8 °F 30.7 °F 94% 30.30 in 10.0 mi ENE 6.9 mph - N/A   Overcast
1:55 AM 32.2 °F 27.7 °F 30.6 °F 94% 30.30 in 7.0 mi ENE 4.6 mph - N/A   Overcast
2:15 AM 32.5 °F 26.2 °F 31.1 °F 94% 30.28 in 7.0 mi East 6.9 mph - N/A   Overcast
2:35 AM 34.9 °F 30.8 °F 32.0 °F 89% 30.28 in 10.0 mi ENE 4.6 mph - N/A   Overcast
2:55 AM 35.6 °F 30.7 °F 32.5 °F 89% 30.29 in 10.0 mi ESE 5.8 mph - N/A   Overcast
3:15 AM 36.1 °F 29.9 °F 32.9 °F 88% 30.27 in 10.0 mi SE 8.1 mph - N/A   Overcast
3:35 AM 36.3 °F 28.9 °F 32.9 °F 87% 30.26 in 10.0 mi ESE 10.4 mph - N/A   Overcast
3:55 AM 36.5 °F 30.3 °F 32.9 °F 87% 30.26 in 10.0 mi ESE 8.1 mph 17.3 mph N/A   Overcast
4:15 AM 36.9 °F 34.3 °F 33.3 °F 87% 30.27 in 10.0 mi East 3.5 mph - N/A   Overcast
4:35 AM 36.7 °F 32.9 °F 33.4 °F 88% 30.26 in 10.0 mi ESE 4.6 mph - N/A   Overcast
4:55 AM 36.7 °F 32.0 °F 33.3 °F 87% 30.24 in 10.0 mi ESE 5.8 mph - N/A Rain Rain
5:15 AM 36.7 °F 31.2 °F 33.8 °F 89% 30.23 in 10.0 mi ESE 6.9 mph - N/A   Overcast
5:35 AM 37.4 °F 32.1 °F 34.0 °F 87% 30.24 in 10.0 mi ESE 6.9 mph - N/A Rain Rain
5:55 AM 37.4 °F 32.1 °F 34.7 °F 90% 30.22 in 4.0 mi ESE 6.9 mph - 0.01 in Rain Rain
6:15 AM 37.6 °F 34.0 °F 34.9 °F 90% 30.23 in 4.0 mi East 4.6 mph - 0.01 in Rain Light Rain
6:35 AM 37.6 °F 31.6 °F 35.2 °F 91% 30.24 in 2.5 mi SE 8.1 mph - 0.04 in Rain Light Rain
6:55 AM 37.8 °F 34.2 °F 34.9 °F 89% 30.23 in 4.0 mi ESE 4.6 mph - 0.07 in Rain Rain
7:15 AM 38.1 °F 32.3 °F 35.2 °F 89% 30.23 in 10.0 mi SE 8.1 mph - N/A   Drizzle
7:35 AM 37.9 °F 31.5 °F 34.9 °F 89% 30.23 in 7.0 mi ESE 9.2 mph 20.7 mph N/A Rain Light Rain
7:55 AM 37.6 °F 30.0 °F 34.9 °F 90% 30.21 in 5.0 mi SE 11.5 mph 18.4 mph 0.02 in Rain Light Rain
8:15 AM 37.6 °F 29.6 °F 34.7 °F 89% 30.19 in 5.0 mi ESE 12.7 mph 20.7 mph N/A   Drizzle
8:35 AM 37.8 °F 30.2 °F 34.9 °F 89% 30.20 in 5.0 mi ESE 11.5 mph - 0.01 in Rain Rain
8:55 AM 37.9 °F 32.1 °F 34.7 °F 88% 30.20 in 3.0 mi SE 8.1 mph - 0.03 in Rain Light Rain
9:15 AM 37.4 °F 32.1 °F 35.4 °F 93% 30.22 in 3.0 mi ESE 6.9 mph - 0.03 in Rain Light Rain
9:35 AM 37.4 °F 31.4 °F 34.0 °F 87% 30.21 in 10.0 mi SE 8.1 mph 18.4 mph 0.03 in Rain Rain
9:55 AM 37.4 °F 32.8 °F 34.3 °F 89% 30.23 in 10.0 mi ESE 5.8 mph - 0.03 in Rain Rain
10:15 AM 37.4 °F 30.3 °F 34.7 °F 90% 30.21 in 4.0 mi SE 10.4 mph 16.1 mph 0.02 in Rain Light Rain
10:35 AM 36.9 °F 29.6 °F 33.8 °F 89% 30.21 in 7.0 mi East 10.4 mph 16.1 mph 0.02 in Rain Rain
10:55 AM 37.4 °F 30.3 °F 34.2 °F 88% 30.20 in 7.0 mi ESE 10.4 mph 16.1 mph 0.03 in Rain Rain
11:15 AM 37.4 °F 30.8 °F 34.5 °F 89% 30.21 in 10.0 mi ESE 9.2 mph - N/A   Drizzle
11:35 AM 37.2 °F 29.6 °F 34.5 °F 90% 30.20 in 2.5 mi ESE 11.5 mph 18.4 mph 0.02 in Rain Light Rain
11:55 AM 36.1 °F 25.9 °F 33.8 °F 91% 30.17 in 1.8 mi ESE 18.4 mph 24.2 mph 0.09 in   Overcast
12:15 PM 37.6 °F 29.6 °F 35.2 °F 91% 30.16 in 7.0 mi ESE 12.7 mph 20.7 mph N/A Rain Light Rain
12:35 PM 38.8 °F 33.2 °F 36.5 °F 91% 30.16 in 10.0 mi SE 8.1 mph 18.4 mph N/A   Light Drizzle
12:55 PM 39.2 °F 32.5 °F 36.7 °F 91% 30.17 in 2.5 mi ESE 10.4 mph 16.1 mph 0.02 in Rain Rain
1:15 PM 37.8 °F 30.7 °F 35.8 °F 93% 30.16 in 3.0 mi SE 10.4 mph - 0.02 in Rain Rain
1:35 PM 38.7 °F 31.8 °F 36.5 °F 92% 30.13 in 4.0 mi SE 10.4 mph 20.7 mph 0.02 in Rain Rain
1:55 PM 39.9 °F 35.8 °F 37.6 °F 91% 30.13 in 7.0 mi ESE 5.8 mph - 0.03 in Rain Rain
2:15 PM 40.3 °F - 38.3 °F 93% 30.15 in 5.0 mi Calm Calm - N/A Rain Rain
2:35 PM 40.6 °F 35.4 °F 38.8 °F 93% 30.13 in 5.0 mi SE 8.1 mph - 0.01 in Rain Rain
2:55 PM 41.0 °F 36.4 °F 38.8 °F 92% 30.12 in 7.0 mi SE 6.9 mph - 0.01 in   Light Drizzle
3:15 PM 41.7 °F 38.0 °F 39.2 °F 91% 30.12 in 10.0 mi ESE 5.8 mph - N/A   Overcast
3:35 PM 42.3 °F 38.6 °F 39.6 °F 90% 30.12 in 10.0 mi SE 5.8 mph - N/A Rain Light Rain
3:55 PM 43.0 °F 39.5 °F 40.3 °F 90% 30.11 in 10.0 mi SE 5.8 mph - N/A   Light Drizzle
4:15 PM 42.8 °F 37.0 °F 40.5 °F 91% 30.10 in 10.0 mi SE 10.4 mph - N/A Rain Rain
4:35 PM 43.0 °F 37.7 °F 40.3 °F 90% 30.11 in 10.0 mi SE 9.2 mph - N/A   Overcast
4:55 PM 43.5 °F 38.9 °F 40.6 °F 90% 30.11 in 10.0 mi SSE 8.1 mph - N/A   Overcast
5:15 PM 43.7 °F 39.1 °F 41.2 °F 91% 30.11 in 7.0 mi SSE 8.1 mph - 0.02 in Rain Rain
5:35 PM 43.2 °F 38.4 °F 41.0 °F 92% 30.10 in 7.0 mi SSE 8.1 mph - 0.04 in Rain Rain
5:55 PM 43.9 °F 39.3 °F 41.9 °F 93% 30.10 in 10.0 mi SSE 8.1 mph - 0.05 in Rain Light Rain
6:15 PM 44.2 °F 40.3 °F 42.1 °F 92% 30.11 in 10.0 mi SE 6.9 mph - 0.01 in Rain Light Rain
6:35 PM 45.0 °F 40.6 °F 42.8 °F 92% 30.10 in 10.0 mi SE 8.1 mph - 0.05 in Rain Rain
6:55 PM 45.5 °F 41.8 °F 43.3 °F 92% 30.10 in 10.0 mi SSE 6.9 mph - 0.07 in Rain Light Rain
7:15 PM 45.0 °F 40.6 °F 42.8 °F 92% 30.11 in 7.0 mi SSE 8.1 mph - 0.02 in Rain Rain
7:35 PM 45.1 °F 41.4 °F 43.3 °F 93% 30.11 in 5.0 mi SSE 6.9 mph - 0.05 in Rain Rain
7:55 PM 45.5 °F 41.3 °F 43.7 °F 93% 30.10 in 7.0 mi SE 8.1 mph - 0.06 in Rain Light Rain
8:15 PM 46.0 °F 43.1 °F 43.9 °F 92% 30.10 in 10.0 mi SSE 5.8 mph - N/A   Light Drizzle
8:35 PM 45.9 °F 41.7 °F 43.9 °F 93% 30.10 in 7.0 mi SSE 8.1 mph - N/A   Drizzle
8:55 PM 46.8 °F - 44.6 °F 92% 30.12 in 7.0 mi SSE 5.8 mph - 0.01 in Rain Rain
9:15 PM 46.8 °F - 44.6 °F 92% 30.11 in 10.0 mi SSE 4.6 mph - N/A Rain Rain
9:35 PM 46.2 °F 43.3 °F 44.2 °F 93% 30.10 in 10.0 mi SE 5.8 mph - 0.02 in Rain Rain
9:55 PM 46.6 °F - 45.0 °F 94% 30.10 in 10.0 mi SSE 6.9 mph - 0.03 in Rain Light Rain
10:15 PM 46.9 °F - 45.0 °F 93% 30.10 in 10.0 mi SE 4.6 mph - N/A Rain Light Rain
10:35 PM 48.2 °F - 45.9 °F 92% 30.09 in 10.0 mi SSE 3.5 mph - 0.01 in   Overcast
10:55 PM 49.5 °F - 46.8 °F 90% 30.08 in 10.0 mi Calm Calm - 0.01 in Rain Light Rain
11:15 PM 48.2 °F - 46.4 °F 93% 30.06 in 10.0 mi SSE 4.6 mph - N/A Rain Light Rain
11:35 PM 48.7 °F - 46.8 °F 93% 30.05 in 10.0 mi SSE 5.8 mph - N/A   Overcast
11:55 PM 50.5 °F - 47.7 °F 90% 30.04 in 10.0 mi SSE 3.5 mph - N/A   Mostly Cloudy